Lastest Insider Transactions Of TEXAS PACIFIC LAND TRUST ( TPL )
SymbolCompany NameInsider NameTitleDateTransationSharePriceAmountFile Date
TPLTEXAS PACIFIC LAND TRUSTHORIZON KINETICS ASSET MANAGEMENT LLC 10% Owner2019-05-21Buy36849.4830,5812019-05-22 11:04:19
TPLTEXAS PACIFIC LAND TRUSTHORIZON KINETICS ASSET MANAGEMENT LLC 10% Owner2019-05-20Buy36860.0930,9632019-05-21 10:40:57
TPLTEXAS PACIFIC LAND TRUSTHORIZON KINETICS ASSET MANAGEMENT LLC 10% Owner2019-05-17Buy36845.4230,4352019-05-20 10:14:29
TPLTEXAS PACIFIC LAND TRUSTHORIZON KINETICS ASSET MANAGEMENT LLC 10% Owner2019-05-16Buy36842.5730,3332019-05-17 10:04:17
TPLTEXAS PACIFIC LAND TRUSTHORIZON KINETICS ASSET MANAGEMENT LLC 10% Owner2019-05-15Buy36837.8430,1622019-05-16 11:34:48
TPLTEXAS PACIFIC LAND TRUSTHORIZON KINETICS ASSET MANAGEMENT LLC 10% Owner2019-05-14Buy36805.7329,0062019-05-15 11:34:45
TPLTEXAS PACIFIC LAND TRUSTHORIZON KINETICS ASSET MANAGEMENT LLC 10% Owner2019-05-13Buy36787.2028,3392019-05-14 10:54:29
TPLTEXAS PACIFIC LAND TRUSTHORIZON KINETICS ASSET MANAGEMENT LLC 10% Owner2019-05-10Buy36780.7828,1082019-05-13 11:32:25
TPLTEXAS PACIFIC LAND TRUSTHORIZON KINETICS ASSET MANAGEMENT LLC 10% Owner2019-05-09Buy36779.9928,0802019-05-10 11:13:56
TPLTEXAS PACIFIC LAND TRUSTHORIZON KINETICS ASSET MANAGEMENT LLC 10% Owner2019-05-08Buy36799.9828,7992019-05-09 11:04:39
TPLTEXAS PACIFIC LAND TRUSTHORIZON KINETICS ASSET MANAGEMENT LLC 10% Owner2019-05-07Buy36781.2128,1242019-05-08 11:30:56
TPLTEXAS PACIFIC LAND TRUSTHORIZON KINETICS ASSET MANAGEMENT LLC 10% Owner2019-05-06Buy36807.2329,0602019-05-07 12:35:40
TPLTEXAS PACIFIC LAND TRUSTHorizon Kinetics LLC 10% Owner2019-05-03Buy36807.2029,0592019-05-06 11:28:51
TPLTEXAS PACIFIC LAND TRUSTHorizon Kinetics LLC 10% Owner2019-05-02Buy36819.9929,5202019-05-03 11:46:58
TPLTEXAS PACIFIC LAND TRUSTHorizon Kinetics LLC 10% Owner2019-05-02Buy36819.9929,5202019-05-03 11:46:58
TPLTEXAS PACIFIC LAND TRUSTHorizon Kinetics LLC 10% Owner2019-05-01Buy36806.6829,0402019-05-02 11:14:59
TPLTEXAS PACIFIC LAND TRUSTHorizon Kinetics LLC 10% Owner2019-04-30Buy36809.6529,1472019-05-01 11:31:18
TPLTEXAS PACIFIC LAND TRUSTHorizon Kinetics LLC 10% Owner2019-04-29Buy36837.9330,1652019-04-30 11:34:50
TPLTEXAS PACIFIC LAND TRUSTHorizon Kinetics LLC 10% Owner2019-04-26Buy36879.0031,6442019-04-29 11:13:18
TPLTEXAS PACIFIC LAND TRUSTHorizon Kinetics LLC 10% Owner2019-04-25Buy36897.2532,3012019-04-26 11:06:58
TPLTEXAS PACIFIC LAND TRUSTHorizon Kinetics LLC 10% Owner2019-04-24Buy36899.8732,3952019-04-25 12:04:27
TPLTEXAS PACIFIC LAND TRUSTHorizon Kinetics LLC 10% Owner2019-04-23Buy36898.8732,3592019-04-24 11:14:07
TPLTEXAS PACIFIC LAND TRUSTHorizon Kinetics LLC 10% Owner2019-04-22Buy36896.0732,2592019-04-23 12:22:13
TPLTEXAS PACIFIC LAND TRUSTHorizon Kinetics LLC 10% Owner2019-04-18Buy42899.9237,7972019-04-22 10:59:25
TPLTEXAS PACIFIC LAND TRUSTHorizon Kinetics LLC 10% Owner2019-04-17Buy42887.2337,2642019-04-18 11:39:21
TPLTEXAS PACIFIC LAND TRUSTHorizon Kinetics LLC 10% Owner2019-04-16Buy42898.4937,7372019-04-17 10:58:42
TPLTEXAS PACIFIC LAND TRUSTHorizon Kinetics LLC 10% Owner2019-04-15Buy42903.0537,9282019-04-16 11:40:28
TPLTEXAS PACIFIC LAND TRUSTHorizon Kinetics LLC 10% Owner2019-04-12Buy42903.5237,9482019-04-15 11:48:20
TPLTEXAS PACIFIC LAND TRUSTHorizon Kinetics LLC 10% Owner2019-04-11Buy42911.0738,2652019-04-12 11:04:03
TPLTEXAS PACIFIC LAND TRUSTHorizon Kinetics LLC 10% Owner2019-04-10Buy42874.0636,7112019-04-11 11:27:46
TPLTEXAS PACIFIC LAND TRUSTHorizon Kinetics LLC 10% Owner2019-04-09Buy36821.5529,5762019-04-10 11:34:56
TPLTEXAS PACIFIC LAND TRUSTHorizon Kinetics LLC 10% Owner2019-04-08Buy7814.505,7022019-04-09 11:54:00
TPLTEXAS PACIFIC LAND TRUSTHorizon Kinetics LLC 10% Owner2019-04-05Buy42792.2733,2752019-04-08 11:02:20
TPLTEXAS PACIFIC LAND TRUSTHorizon Kinetics LLC 10% Owner2019-04-04Buy1,516784.571,189,4082019-04-05 11:24:17
TPLTEXAS PACIFIC LAND TRUSTHorizon Kinetics LLC 10% Owner2019-04-03Buy42797.8833,5112019-04-04 11:41:37
TPLTEXAS PACIFIC LAND TRUSTHorizon Kinetics LLC 10% Owner2019-04-02Buy42801.1633,6492019-04-03 11:49:45
TPLTEXAS PACIFIC LAND TRUSTHorizon Kinetics LLC 10% Owner2019-04-01Buy42784.3032,9412019-04-02 11:31:14
TPLTEXAS PACIFIC LAND TRUSTHorizon Kinetics LLC 10% Owner2019-03-29Buy42773.4832,4862019-04-01 11:47:26
TPLTEXAS PACIFIC LAND TRUSTHorizon Kinetics LLC 10% Owner2019-03-28Buy7774.835,4242019-03-29 11:55:26
TPLTEXAS PACIFIC LAND TRUSTHorizon Kinetics LLC 10% Owner2019-03-27Buy42774.3832,5242019-03-28 11:57:45
TPLTEXAS PACIFIC LAND TRUSTHorizon Kinetics LLC 10% Owner2019-03-26Buy42764.2832,1002019-03-27 11:31:46
TPLTEXAS PACIFIC LAND TRUSTHorizon Kinetics LLC 10% Owner2019-03-25Buy42725.3630,4652019-03-26 13:23:12
TPLTEXAS PACIFIC LAND TRUSTHorizon Kinetics LLC 10% Owner2019-03-22Buy42751.1031,5462019-03-25 11:55:40
TPLTEXAS PACIFIC LAND TRUSTHorizon Kinetics LLC 10% Owner2019-03-21Buy42767.8932,2512019-03-22 12:31:08
TPLTEXAS PACIFIC LAND TRUSTHorizon Kinetics LLC 10% Owner2019-03-20Buy42765.9832,1712019-03-21 16:32:36
TPLTEXAS PACIFIC LAND TRUSTHorizon Kinetics LLC 10% Owner2019-03-19Buy42760.6931,9492019-03-20 12:28:30
TPLTEXAS PACIFIC LAND TRUSTHorizon Kinetics LLC 10% Owner2019-03-18Buy42741.1631,1292019-03-19 12:36:40
TPLTEXAS PACIFIC LAND TRUSTHorizon Kinetics LLC 10% Owner2019-03-15Buy42748.1431,4222019-03-18 16:40:56
TPLTEXAS PACIFIC LAND TRUSTBarry David E.2018-12-26Buy100467.0646,7062018-12-27 16:10:09
TPLTEXAS PACIFIC LAND TRUSTPacker Robert JChief Financial Officer2018-12-04Buy100589.0058,9002018-12-06 16:15:44
TPLTEXAS PACIFIC LAND TRUSTGLOVER TYLERCo-General Agent2018-12-04Buy100598.0059,8002018-12-06 16:15:03
TPLTEXAS PACIFIC LAND TRUSTMeyer Maurice III2018-11-19Sell500607.26303,6302018-11-21 12:56:42
TPLTEXAS PACIFIC LAND TRUSTMeyer Maurice III2018-11-14Sell1,000573.10573,0952018-11-16 16:45:25
TPLTEXAS PACIFIC LAND TRUSTBarry David E.Directior2018-10-11Buy100810.0081,0002018-10-12 16:05:30
TPLTEXAS PACIFIC LAND TRUSTMeyer Maurice III2018-10-03Sell109874.0095,2662018-10-04 16:41:46
TPLTEXAS PACIFIC LAND TRUSTMeyer Maurice III2018-09-26Sell1,000860.80860,8002018-09-28 16:12:06
TPLTEXAS PACIFIC LAND TRUSTMeyer Maurice III2018-09-12Sell500835.00417,5002018-09-14 16:49:23
TPLTEXAS PACIFIC LAND TRUSTMeyer Maurice III2018-08-27Sell1,000854.13854,1322018-08-27 16:09:48